World > North America > United States > North Carolina

Webtown, North Carolina Regional Weather

Lat: 35.37N, Lon: 77.99W
Wx Zone: NCZ078Web Search

If you are on your PC, you can easily pass this page to your phone by scanning the QR Code near the bottom with your camera.

Feedback


°F Click to change Webtown hourly weather to Imperial units.Click to change Webtown hourly weather to Metric units. °C
Webtown Weather Map
UTC Time: 5/6/2021, 01:26
Your Time:

Webtown, NC Regional Weather

Expires:202105060200;;659870
ASUS42 KMHX 060124
RWRMHX
WEATHER ROUNDUP FOR EASTERN NORTH CAROLINA
NATIONAL WEATHER SERVICE NEWPORT/MOREHEAD CITY NC
900 PM EDT WED MAY 05 2021

NOTE: "FAIR" INDICATES FEW OR NO CLOUDS BELOW 12,000 FEET
WITH NO SIGNIFICANT WEATHER AND/OR OBSTRUCTIONS TO VISIBILITY


NCZ011>013-027>030-043-044-078>080-089-090>093-098-060200-
COASTAL PLAIN
  
CITY           SKY/WX    TMP DP  RH WIND       PRES   REMARKS
AHOSKIE        CLOUDY    69  69 100 CALM      29.83R                  
ROCKY MOUNT    CLOUDY    79  61  53 N8        29.82R                  
GREENVILLE     PTCLDY    72  64  78 SW5       29.85R                  
WASHINGTON     PTCLDY    76  62  60 SW7       29.82R                  
GOLDSBORO      PTCLDY    77  64  63 SW10      29.81R                  
KINSTON        CLEAR     73  63  68 SW6       29.84R                  
NEW BERN       PTCLDY    75  61  61 SW5       29.84R                  
HAVELOCK       NOT AVBL                                               
KENANSVILLE    PTCLDY    75  63  64 SW6       29.86R                  
RICHLANDS      PTCLDY    76  62  62 SW7       29.85R                  
CLINTON        MOCLDY    76  65  69 SW6       29.87R                  
ELIZABETHTOWN  MOCLDY    76  62  60 SW7       29.88R                  
WHITEVILLE     MOCLDY    76  60  57 SW5       29.90R                  

$$


SKY/WX - Weather  TMP - Temperature  DP - Dew Point  RH - Relative Humidity
WIND - Wind Direction/Speed PRES - Barometric Pressure VSB - Visibility
WCI - Wind Chill Index E13G22 Wind - East Wind 13 mph/Gusts of 22 mph